Regional Weather Roundup
Issued by NWS

Home | Current Version | Previous Version | Graphics & Text | Print | Product List | Glossary Off
Versions: 1 2 3 4 5 6 7 8 9 10 11 12 13 14 15 16 17 18 19 20 21 22 23 24 25 26 27 28 29 30 31 32 33 34 35 36 37 38 39 40 41 42 43 44 45 46 47 48 49 50

779
ASUS43 KLSX 070607
RWRMO

WEATHER SUMMARY FOR MISSOURI
NATIONAL WEATHER SERVICE SPRINGFIELD MO
1200 AM CST SUN FEB 07 2016

NOTE: "FAIR" INDICATES FEW OR NO CLOUDS BELOW 12,000 FEET WITH NO
       SIGNIFICANT WEATHER AND/OR OBSTRUCTIONS TO VISIBILITY.
       CURRENT SKY AND/OR WEATHER CONDITIONS ARE NOT AVAILABLE FOR
       CHILLICOTHE AND FARMINGTON.

MOZ001>031-035>038-043-044-053-054-070700-
...NORTHERN AND WESTERN MISSOURI...

CITY           SKY/WX    TMP DP  RH WIND       PRES   REMARKS
KANSAS CTY INT PTCLDY    40  28  62 SW14      30.07S
6HR MIN TEMP:  38; 6HR MAX TEMP:  42;

KANSAS C DTWN  PTCLDY    43  27  53 SW14      30.08F
6HR MIN TEMP:  41; 6HR MAX TEMP:  46;

LEE`S SUMMIT   PTCLDY    40  27  59 SW14      30.10R
6HR MIN TEMP:  40; 6HR MAX TEMP:  45;

ST JOSEPH      PTCLDY    38  27  64 S14       30.04F WCI  30
6HR MIN TEMP:  35; 6HR MAX TEMP:  42;

CHILLICOTHE      N/A     38  29  70 S8        30.08S
6HR MIN TEMP:  37; 6HR MAX TEMP:  44;

KIRKSVILLE     CLOUDY    38  28  67 SW10      30.07S
6HR MIN TEMP:  34; 6HR MAX TEMP:  41;


$$
MOZ066>068-077>081-088>096-101>105-070700-
...SOUTHWEST MISSOURI...

CITY           SKY/WX    TMP DP  RH WIND       PRES   REMARKS
SPRINGFIELD    CLEAR     37  28  70 SW8       30.19R
6HR MIN TEMP:  35; 6HR MAX TEMP:  48;

JOPLIN         CLOUDY    35  27  72 S9        30.19F WCI  28
6HR MIN TEMP:  34; 6HR MAX TEMP:  46;


$$
MOZ032>034-039>042-045>050-055>058-069>072-070700-
...CENTRAL MISSOURI...

CITY           SKY/WX    TMP DP  RH WIND       PRES   REMARKS
COLUMBIA       CLOUDY    37  28  70 S12       30.12F WCI  29
6HR MIN TEMP:  35; 6HR MAX TEMP:  47;

JEFFERSON CITY CLEAR     41  29  62 SE3       30.15F
6HR MIN TEMP:  37; 6HR MAX TEMP:  50;

ROLLA          PTCLDY    34  25  69 SW8       30.15S WCI  27
6HR MIN TEMP:  32; 6HR MAX TEMP:  46; 6HR PCP: TRACE;

SEDALIA        CLOUDY    41  28  60 SW12      30.13F
6HR MIN TEMP:  39; 6HR MAX TEMP:  44;

WHITEMAN AFB   CLOUDY    40  28  62 W12       30.12R
WARRENSBURG    CLOUDY    37  30  75 S10       30.11S
OSAGE BEACH    CLEAR     37  28  70 S9        30.16F

$$
MOZ051-052-059>065-070700-
...EAST CENTRAL MISSOURI...

CITY           SKY/WX    TMP DP  RH WIND       PRES   REMARKS
ST LOUIS INTL  PTCLDY    43  24  47 SW9       30.16S
6HR MIN TEMP:  41; 6HR MAX TEMP:  50;

SPIRIT OF STL  CLEAR     30  27  88 CALM      30.15F
6HR MIN TEMP:  30; 6HR MAX TEMP:  49;

ST CHARLES     CLEAR     32  29  88 CALM      30.15S
6HR MIN TEMP:  31; 6HR MAX TEMP:  47;


$$
MOZ072>076-082>087-097>100-106>115-070700-
...SOUTH CENTRAL AND SOUTHEAST MISSOURI...

CITY           SKY/WX    TMP DP  RH WIND       PRES   REMARKS
CAPE GIRARDEAU CLEAR     36  22  56 CALM      30.24F
6HR MIN TEMP:  34; 6HR MAX TEMP:  46;

FARMINGTON     CLEAR     37  19  48 S8        30.20S
6HR MIN TEMP:  37; 6HR MAX TEMP:  48;

POPLAR BLUFF   CLEAR     33  24  69 SW3       30.24F
6HR MIN TEMP:  33; 6HR MAX TEMP:  45;

WEST PLAINS    CLEAR     39  15  37 SW7       30.21F
6HR MIN TEMP:  39; 6HR MAX TEMP:  46;


$$



USA.gov is the U.S. government's official web portal to all federal, state and local government web resources and services.